STARLINK-5154 (54176 NORAD) Tracking and Keplerian Element Data

This shows tracking and keplerian element data for the satellite.

Feedback or suggestion? Click here.




ElementValue
Catalog54176
NameSTARLINK-5154
Epoch Orbit378
Epoch Day324.91667824
Epoch Year2022
RAAN25.7561
Inclination53.218
Eccentricity0.0003316
Argument of Perigee7.6848
Mean Anonmoly286.642
Mean Motion15.73216337
Decay Rate-0.00065203
L11 54176U 22141V 22324.91667824 -.00065203 00000+0 -46325-3 0 9999
L22 54176 53.2180 25.7561 0003316 7.6848 286.6420 15.73216337 3780



Live tracking and technical data element details for STARLINK-5154 (NORAD 54176). STARLINK-5154 can be tracked NOW for your location showing map with azimuth and elevation plus other details from your city location.







IsCatalogInMostPopularTable: catalog: 54176, numindb: 7
Update: records affected: 1



GetName: 54176 STARLINK-5154

Hit Count: updated at: Fri, 09 Dec 2022 19:07:14 GMT